TimeAST,TemperatureF,Dew PointF,Humidity,Sea Level PressureIn,VisibilityMPH,Wind Direction,Wind SpeedMPH,Gust SpeedMPH,PrecipitationIn,Events,Conditions,WindDirDegrees,DateUTC
12:00 AM,77.0,68.0,74,29.98,-9999.0,Variable,2.3,-,N/A,,Clear,0,2012-11-24 21:00:00
12:30 AM,77.0,68.0,74,29.98,-9999.0,ENE,3.5,-,N/A,,Clear,60,2012-11-24 21:30:00
1:00 AM,75.2,68.0,78,29.98,-9999.0,Variable,2.3,-,N/A,,Clear,0,2012-11-24 22:00:00
1:30 AM,75.2,68.0,78,29.98,-9999.0,ENE,3.5,-,N/A,,Clear,60,2012-11-24 22:30:00
2:00 AM,75.2,68.0,78,29.95,-9999.0,ENE,3.5,-,N/A,,Clear,70,2012-11-24 23:00:00
2:30 AM,77.0,68.0,74,29.95,-9999.0,East,3.5,-,N/A,,Clear,80,2012-11-24 23:30:00
3:00 AM,77.0,68.0,74,29.95,-9999.0,Variable,2.3,-,N/A,,Clear,0,2012-11-25 00:00:00
3:30 AM,75.2,66.2,73,29.98,-9999.0,Variable,2.3,-,N/A,,Clear,0,2012-11-25 00:30:00
4:00 AM,75.2,64.4,69,29.98,-9999.0,Variable,2.3,-,N/A,,Clear,0,2012-11-25 01:00:00
4:30 AM,75.2,64.4,69,29.98,-9999.0,ENE,3.5,-,N/A,,Clear,60,2012-11-25 01:30:00
5:00 AM,75.2,64.4,69,29.98,-9999.0,Variable,1.2,-,N/A,,Clear,0,2012-11-25 02:00:00
5:30 AM,75.2,66.2,73,30.01,-9999.0,Calm,Calm,-,N/A,,Clear,0,2012-11-25 02:30:00
6:00 AM,75.2,68.0,78,30.01,5.6,Calm,Calm,-,N/A,,Unknown,0,2012-11-25 03:00:00
6:30 AM,75.2,69.8,83,30.01,-9999.0,Calm,Calm,-,N/A,,Clear,0,2012-11-25 03:30:00
7:00 AM,75.2,69.8,83,30.04,-9999.0,Calm,Calm,-,N/A,,Clear,0,2012-11-25 04:00:00
7:30 AM,77.0,69.8,78,30.04,-9999.0,Variable,2.3,-,N/A,,Clear,0,2012-11-25 04:30:00
8:00 AM,78.8,69.8,74,30.04,-9999.0,Variable,2.3,-,N/A,,Clear,0,2012-11-25 05:00:00
8:30 AM,82.4,68.0,62,30.04,-9999.0,East,6.9,-,N/A,,Clear,90,2012-11-25 05:30:00
9:00 AM,80.6,68.0,65,30.04,-9999.0,East,6.9,-,N/A,,Clear,100,2012-11-25 06:00:00
9:30 AM,82.4,66.2,58,30.04,-9999.0,East,6.9,-,N/A,,Clear,100,2012-11-25 06:30:00
10:00 AM,82.4,66.2,58,30.04,-9999.0,East,6.9,-,N/A,,Clear,80,2012-11-25 07:00:00
10:30 AM,84.2,64.4,51,30.04,-9999.0,East,8.1,-,N/A,,Clear,90,2012-11-25 07:30:00
11:00 AM,84.2,64.4,51,30.01,-9999.0,East,8.1,-,N/A,,Clear,90,2012-11-25 08:00:00
11:30 AM,84.2,64.4,51,30.01,-9999.0,East,10.4,-,N/A,,Clear,100,2012-11-25 08:30:00
12:00 PM,84.2,66.2,55,29.98,-9999.0,ESE,10.4,-,N/A,,Clear,120,2012-11-25 09:00:00
12:30 PM,82.4,68.0,62,29.98,-9999.0,ESE,9.2,-,N/A,,Clear,120,2012-11-25 09:30:00
1:00 PM,82.4,66.2,58,29.98,-9999.0,ESE,10.4,-,N/A,,Clear,110,2012-11-25 10:00:00
2:00 PM,82.4,66.2,58,29.98,6.2,East,9.2,-,N/A,,Partly Cloudy,100,2012-11-25 11:00:00
2:30 PM,82.4,68.0,62,29.95,6.2,ESE,9.2,-,N/A,,Partly Cloudy,110,2012-11-25 11:30:00
3:00 PM,81,67,54,29.98,6,East,8.1,,,,Partly Cloudy,90,2012-11-25 12:00:00
3:00 PM,80.6,68.0,65,29.98,-9999.0,East,8.1,-,N/A,,Clear,90,2012-11-25 12:00:00
3:30 PM,80.6,68.0,65,29.95,5.6,ESE,8.1,-,N/A,,Unknown,110,2012-11-25 12:30:00
4:00 PM,80.6,66.2,61,29.95,5.6,ESE,9.2,-,N/A,,Unknown,110,2012-11-25 13:00:00
4:30 PM,80.6,66.2,61,29.95,5.6,East,6.9,-,N/A,,Unknown,100,2012-11-25 13:30:00
5:00 PM,78.8,66.2,65,29.98,5.6,East,5.8,-,N/A,,Unknown,100,2012-11-25 14:00:00
5:30 PM,78.8,68.0,69,29.98,-9999.0,East,4.6,-,N/A,,Clear,80,2012-11-25 14:30:00
6:00 PM,78.8,68.0,69,29.98,-9999.0,East,4.6,-,N/A,,Clear,80,2012-11-25 15:00:00
6:30 PM,78.8,68.0,69,29.98,-9999.0,East,5.8,-,N/A,,Clear,80,2012-11-25 15:30:00
7:00 PM,77.0,69.8,78,29.98,-9999.0,East,4.6,-,N/A,,Clear,80,2012-11-25 16:00:00
7:30 PM,77.0,69.8,78,29.98,5.6,East,6.9,-,N/A,,Unknown,90,2012-11-25 16:30:00
8:00 PM,77.0,69.8,78,29.98,5.0,East,4.6,-,N/A,,Unknown,80,2012-11-25 17:00:00
8:30 PM,77.0,69.8,78,29.98,5.0,ENE,5.8,-,N/A,,Unknown,70,2012-11-25 17:30:00
9:00 PM,77,69,71,30.00,5,ENE,4.6,,,,Haze,60,2012-11-25 18:00:00
9:00 PM,77.0,69.8,78,29.98,5.0,ENE,4.6,-,N/A,,Unknown,60,2012-11-25 18:00:00
9:30 PM,77.0,69.8,78,29.98,4.3,East,4.6,-,N/A,,Unknown,80,2012-11-25 18:30:00
10:00 PM,77.0,69.8,78,29.98,3.7,East,4.6,-,N/A,,Unknown,80,2012-11-25 19:00:00
10:30 PM,77.0,69.8,78,29.98,3.7,East,5.8,-,N/A,,Unknown,80,2012-11-25 19:30:00
11:00 PM,77.0,69.8,78,29.98,3.7,East,5.8,-,N/A,,Unknown,90,2012-11-25 20:00:00
11:30 PM,77.0,69.8,78,29.98,3.7,East,4.6,-,N/A,,Unknown,80,2012-11-25 20:30:00